Regional Weather Roundup
Issued by NWS

Home | Current Version | Previous Version | Graphics & Text | Print | Product List | Glossary Off
Versions: 1 2 3 4 5 6 7 8 9 10 11 12 13 14 15 16 17 18 19 20 21 22 23 24 25 26 27 28 29 30 31 32 33 34 35 36 37 38 39 40 41 42 43 44 45 46 47 48 49 50

000
ASUS43 KOAX 250810
RWRNE

WEATHER ROUNDUP FOR NEBRASKA
NATIONAL WEATHER SERVICE OMAHA NE
300 AM CDT FRI APR 25 2014

NOTES: SATELLITE DATA IS BEING USED TO AUGMENT CLOUD COVER ABOVE
       12000 FEET.
       "FAIR" INDICATES FEW OR NO CLOUDS BELOW 12,000 FEET WITH NO
       SIGNIFICANT WEATHER AND/OR OBSTRUCTIONS TO VISIBILITY.

  * THESE STATIONS DO NOT REPORT WEATHER SUCH AS RAIN...SNOW OR FOG.

NEZ001>004-019>022-054>056-250900-
NEBRASKA PANHANDLE

CITY           SKY/WX    TMP DP  RH WIND       PRES   REMARKS
SCOTTSBLUFF    CLEAR     54  28  36 W12       29.85R
ALLIANCE       PTCLDY    52  28  39 W17       29.81S
CHADRON        CLOUDY    46  31  55 W3        29.79R
KIMBALL        CLOUDY    47  23  38 W16       29.88F
SIDNEY         MOCLDY    47  24  40 SW12      29.87F
$$

NEZ057>060-069>072-079>082-250900-
SOUTHWEST NEBRASKA

CITY           SKY/WX    TMP DP  RH WIND       PRES   REMARKS
NORTH PLATTE   PTCLDY    47  22  37 CALM      29.82S
IMPERIAL       CLEAR     47  21  35 SW10      29.86S
LEXINGTON      CLEAR     41  26  55 CALM      29.81F
MCCOOK         PTCLDY    41  25  53 W10       29.85F
OGALLALA       MOCLDY    39  21  49 W7        29.84S WCI  34
$$

NEZ005>010-023>029-035>040-094-250900-
NORTH CENTRAL NEBRASKA

CITY           SKY/WX    TMP DP  RH WIND       PRES   REMARKS
VALENTINE      CLOUDY    52  26  36 CALM      29.81F
AINSWORTH      CLOUDY    49  30  49 S3        29.83S
BROKEN BOW     CLEAR     34  22  61 CALM      29.81F
O`NEILL        MOCLDY    43  29  56 SW6       29.82S
ORD            CLEAR     33  28  81 NW7       29.81F WCI  27
THEDFORD       CLOUDY    45  25  46 CALM      29.83R
$$

NEZ041-046>049-061>064-073>077-083>087-250900-
SOUTH CENTRAL NEBRASKA

CITY           SKY/WX    TMP DP  RH WIND       PRES   REMARKS
GRAND ISLAND   CLEAR     48  36  63 SW5       29.82F
AURORA         CLEAR     53  31  42 S6        29.82F
HASTINGS       CLEAR     47  33  58 CALM      29.82F
HEBRON         CLEAR     39  35  83 CALM      29.85S
HOLDREGE       CLEAR     47  28  47 SW9       29.83F
KEARNEY *      CLEAR     45  30  57 SW9       29.82F
YORK           CLEAR     46  32  57 S7        29.83F
$$

NEZ011>018-030>034-042>045-250900-
NORTHEAST NEBRASKA

CITY           SKY/WX    TMP DP  RH WIND       PRES   REMARKS
NORFOLK        CLEAR     39  34  82 CALM      29.81S
ALBION         CLEAR     38  34  83 NW3       29.82F
BLAIR          CLEAR     46  38  75 CALM      29.81S
COLUMBUS *     CLEAR     39  34  81 CALM      29.83F
FREMONT        CLEAR     41  37  86 CALM      29.82S
TEKAMAH        CLEAR     40  36  86 SW3       29.81R
$$

NEZ050>053-065>068-078-088>093-250900-
SOUTHEAST NEBRASKA

CITY           SKY/WX    TMP DP  RH WIND       PRES   REMARKS
LINCOLN        CLEAR     41  34  76 S6        29.84F
OMAHA EPPLEY   CLEAR     45  41  86 SE6       29.82S
BEATRICE       CLEAR     41  36  83 CALM      29.85S
FALLS CITY     CLEAR     44  41  89 CALM      29.84S
NEBRASKA CITY  CLEAR     45  40  82 SW12      29.83S
PLATTSMOUTH    CLEAR     48  38  68 SW3       29.82S
$$

NEZ044-045-051>053-067-250900-
OMAHA AREA

CITY           SKY/WX    TMP DP  RH WIND       PRES   REMARKS
OMAHA EPPLEY   CLEAR     45  41  86 SE6       29.82S
BLAIR          CLEAR     46  38  75 CALM      29.81S
FREMONT        CLEAR     41  37  86 CALM      29.82S
MILLARD        CLEAR     42  40  91 CALM      29.82S
OFFUTT AFB     CLEAR     39  39 100 E2        29.82S
PLATTSMOUTH    CLEAR     48  38  68 SW3       29.82S
WAHOO          FAIR      46  33  59 W5        29.82S
$$



USA.gov is the U.S. government's official web portal to all federal, state and local government web resources and services.